Voltar ao catálogo

FENGYUN 1C DEB

AtivoSSO
NORAD 30619·DEBRIS·🇨🇳 China

Lançado May 10, 1999 de Taiyuan Satellite Launch Center

Loading…

Próximas Passagens (próximas 24 horas)

TLE

AtualizadoSource: Space-Track

Época: Sep 12, 2026, 12:00 UTC

1 30619U 99025ANA 26255.50038001  .00000583  00000-0  14933-3 0  9990
2 30619  98.2772 275.4354 0212171 311.0598  47.2427 14.41732897 28829

Acompanhe FENGYUN 1C DEB em tempo real com AllMySat

Download on the App Store